Location: Calvatone
(45.1167°N, 10.4333°E)
Time: 14:12:41
(UTC+00:00)

Cosmos 1980 Rocket - Pass Details

Date: 28 January 2023
Orbit: 828 x 850 km, 71.0° (Epoch: 30 March)

Event Time Altitude Azimuth Distance (km) Brightness Sun altitude
Rises 16:49:00 0° 186° (S) 3,369 5.7 -5.6°
Reaches altitude 10° 16:51:29 10° 181° (S) 2,442 4.9 -6.0°
Maximum altitude 16:56:50 48° 109° (ESE) 1,084 2.5 -6.9°
Drops below altitude 10° 17:02:16 10° 36° (NE) 2,473 4.2 -7.8°
Enters shadow 17:04:32 - 31° (NNE) 3,318 4.8 -8.2°
